Home > Weather > Rio Branco > Past weeks

Flag for Brazil Weather for the Past 2 Weeks in Rio Branco, Acre, Brazil

Now
91 °F

Scattered clouds.


Feels Like: 99 °F
Forecast: 72 / 88 °F
Wind: 5 mph from Northwest

Location: Rio Branco Airport

Current Time: May 6, 2016 at 2:44:41 PM

Latest Report: May 6, 2016 at 2:00 PM


Visibility: N/A

Pressure: 29.83 "Hg

Humidity: 52%

Dew Point: 72 °F

Location of Rio BrancoLocation

Historic Weather in Rio Branco — Graph

°F

Rio Branco Temperature Yesterday

Maximum temperature yesterday: 88 °F (at 1:00 PM)
Minimum temperature yesterday: 70 °F (at 5:00 AM)
Average temperature yesterday: 78 °F

High & Low Weather Summary for the Past Weeks

 TemperatureHumidityPressure
High91 °F (Apr 21, 3:00 PM)100% (Apr 21, 7:00 PM)30.12 "Hg (Apr 21, 7:00 PM)
Low61 °F (Apr 27, 6:00 AM)50% (Apr 29, 10:00 AM)29.71 "Hg (Apr 25, 3:00 PM)
Average75 °F81%29.92 "Hg
* Reported Apr 21 1:00 PM — May 6 1:00 PM, Rio Branco, Weather by CustomWeather, © 2016

Note: Actual official high and low records may vary slightly from our data, if they occured in-between our weather recording intervals... More about our weather records

Advertising

Rio Branco Weather History for the Previous 24 Hours

Scroll right to see more
 ConditionsComfort  
Time TempWeatherWind HumidityBarometerVisibility
1:00 PM
Fri, May 6
91 °FScattered clouds.7 mph56%29.89 "HgN/A
12:00 PM90 °FScattered clouds.3 mph59%29.92 "HgN/A
11:00 AM88 °FScattered clouds.3 mph66%29.95 "HgN/A
10:00 AM86 °FScattered clouds.3 mph75%29.98 "HgN/A
9:00 AM84 °FSunny.5 mph74%29.98 "Hg10 mi
8:00 AM81 °FSunny.3 mph89%29.95 "Hg10 mi
7:00 AM75 °FSunny.1 mph100%29.95 "Hg10 mi
6:00 AM73 °FSunny.2 mph100%29.92 "Hg10 mi
5:00 AM73 °FClear.No wind100%29.89 "Hg10 mi
4:00 AM75 °FClear.1 mph94%29.89 "Hg10 mi
3:00 AM75 °FClear.No wind94%29.89 "Hg10 mi
1:00 AM75 °FClear.No wind100%29.89 "Hg10 mi
12:00 AM75 °FClear.2 mph94%29.92 "Hg10 mi
11:00 PM
Thu, May 5
75 °FClear.1 mph100%29.92 "Hg10 mi
10:00 PM75 °FClear.1 mph100%29.92 "Hg10 mi
9:00 PM75 °FClear.3 mph94%29.92 "Hg10 mi
8:00 PM75 °FPassing clouds.No wind100%29.92 "HgN/A
7:00 PM75 °FPassing clouds.2 mph100%29.89 "HgN/A
6:00 PM77 °FPassing clouds.2 mph94%29.86 "HgN/A
5:00 PM81 °FScattered clouds.2 mph79%29.86 "HgN/A
4:00 PM82 °FScattered clouds.3 mph79%29.86 "HgN/A
3:00 PM86 °FScattered clouds.2 mph70%29.86 "HgN/A
2:00 PM86 °FScattered clouds.5 mph70%29.89 "HgN/A
Weather by CustomWeather, © 2016

See weather overviewHow to use our weather pages